NOAA 16 DEB, 41164

Orbit data source: Space-Track

NOAA 16 DEB, 41164 is space debris in SSO originally from a launch on Thu, 21 Sep 2000 UTC launched from the Air Force Western Test Range (AFWTR). Debris objects in space refer to the collection of defunct objects orbiting the Earth. Examples of debris include non-operational satellites, rocket bodies, and fragments generated from explosions, collisions, or faulty payload assembly.

Loading next visibility...
Identifier
41164, 2000-055CX
Orbit
SSO
Country
Flag of USUS
Related business
Manufacturer
Unknown
Mission
Spacecraft
Bus & Motor
Unknown
Mass
Unknown
Launch date (UTC)
2000-09-21 (25 years ago)
Launch vehicle
Unknown
Launch site
Air Force Western Test Range (AFWTR)
Object type
Payload
Rocket body
Debris
Shape & HBR
Unknown shape, 0.1 m
Radar Cross Section
Small (<0.1 m²)

Expand to show TLE details & history
Last TLE update: 2 days ago

TLE from 2 days ago
0 NOAA 16 DEB
1 41164U 00055CX  25339.49266842  .00012502  00000-0  59070-2 0  9992
2 41164  98.9730  54.7883 0059842 221.2343 138.4305 14.18907976512570
Epoch: 2025-12-05T11:49Z
TLE epoch observation values (Epoch: 2025-12-05T11:49:26.551Z)
Latitude
0.00005°
Longitude
162.89369°
Altitude
864.339 km
Speed
7.404 km/s
True Right ascension
03h 39m 09s
True Declination
0° 00' 00"
Sunlit
Object was in full shadow at epoch
Visualization orbit readout
Latitude
Unknown
Longitude
Unknown
Altitude
Unknown
Speed
Unknown
Apparent Right ascension
Unknown
Apparent Declination
Unknown
Sunlit
N/A
Visualization observer readout
Local Sidereal Time
05:22:06
Azimuth
Unknown
Elevation
Unknown
Doppler factor
Unknown
Orbital elements
Apogee altitude
869.333 km
Perigee altitude
783.109 km
Semi-major axis
7,204.358 km
Eccentricity
0.00598
Inclination
98.973°
RAAN
54.7883°
Arg. of periapsis
221.2343°
True anomaly
138.88297°
Mean anomaly
138.4305°
Eccentric anomaly
138.65699°
Mean motion
3.54936 °/min
Orbital period
101.43 mins
BSTAR
0.005907
Loading maneuver chart data...
Computing Atmospheric mass density...
Loading historical data...
Loading historical data...
Loading historical data...
Loading historical data...
Loading historical data...
Loading historical data...
Loading historical data...

Documentation

Showing up to 5 results
|